| time (UTC) | temp C | wind direction | speed KPH | gust KPH | rain 1hr cm | rain 24hr cm | rain mn cm | humidity % | barometer mb |
| 20260507094038 | 8 | 0.0 | 0.0 | 0.00 | 0.00 | 0.00 | 75 | 1006.8 | |
| 20260507093015 | 8 | 0.0 | 0.0 | 0.00 | 0.00 | 0.00 | 76 | 1006.7 | |
| 20260507092030 | 8 | 0.0 | 0.0 | 0.00 | 0.00 | 0.00 | 76 | 1007.1 | |
| 20260507091016 | 8 | 0.0 | 0.0 | 0.00 | 0.00 | 0.00 | 76 | 1006.6 | |
| 20260507090019 | 8 | 0.0 | 0.0 | 0.00 | 0.00 | 0.00 | 76 | 1006.7 | |
| 20260507085022 | 8 | 0.0 | 0.0 | 0.00 | 0.00 | 0.00 | 76 | 1006.7 | |
| 20260507084026 | 8 | 270 | 0.0 | 4.8 | 0.00 | 0.00 | 0.00 | 76 | 1006.6 |
| 20260507083029 | 8 | 0.0 | 0.0 | 0.00 | 0.00 | 0.00 | 76 | 1006.4 | |
| 20260507082032 | 9 | 304 | 1.6 | 4.8 | 0.00 | 0.00 | 0.00 | 75 | 1006.6 |
| 20260507081017 | 9 | 0.0 | 0.0 | 0.00 | 0.00 | 0.00 | 74 | 1006.4 | |
| 20260507080021 | 10 | 248 | 0.0 | 3.2 | 0.00 | 0.00 | 0.00 | 73 | 1006.7 |
| 20260507075024 | 10 | 273 | 3.2 | 8.0 | 0.00 | 0.00 | 0.00 | 73 | 1006.6 |
| 20260507074047 | 10 | 0.0 | 3.2 | 0.00 | 0.00 | 0.00 | 74 | 1006.4 | |
| 20260507073050 | 10 | 0.0 | 0.0 | 0.00 | 0.00 | 0.00 | 74 | 1006.2 | |
| 20260507072016 | 10 | 220 | 1.6 | 9.7 | 0.00 | 0.00 | 0.00 | 75 | 1006.1 |
| 20260507071019 | 10 | 333 | 1.6 | 6.4 | 0.00 | 0.00 | 0.00 | 75 | 1006.2 |
| 20260507070022 | 10 | 0.0 | 1.6 | 0.00 | 0.00 | 0.00 | 75 | 1006.0 | |
| 20260507065026 | 10 | 0 | 1.6 | 8.0 | 0.00 | 0.00 | 0.00 | 75 | 1006.0 |
| 20260507064029 | 10 | 296 | 1.6 | 8.0 | 0.00 | 0.00 | 0.00 | 74 | 1005.9 |
| 20260507063026 | 10 | 225 | 1.6 | 6.4 | 0.00 | 0.00 | 0.00 | 74 | 1005.6 |
| 20260507062017 | 10 | 0.0 | 0.0 | 0.00 | 0.00 | 0.00 | 75 | 1005.9 | |
| 20260507061021 | 10 | 315 | 0.0 | 1.6 | 0.00 | 0.00 | 0.00 | 75 | 1006.0 |
| 20260507060018 | 10 | 0.0 | 3.2 | 0.00 | 0.00 | 0.00 | 77 | 1006.2 | |
| 20260507055015 | 10 | 266 | 3.2 | 11.3 | 0.00 | 0.00 | 0.00 | 79 | 1006.4 |
| 20260507054051 | 11 | 248 | 0.0 | 4.8 | 0.00 | 0.00 | 0.00 | 80 | 1006.3 |
| 20260507053016 | 11 | 0.0 | 0.0 | 0.00 | 0.00 | 0.00 | 80 | 1006.1 | |
| 20260507052019 | 11 | 203 | 0.0 | 3.2 | 0.00 | 0.00 | 0.00 | 80 | 1006.5 |
| 20260507051043 | 11 | 158 | 0.0 | 3.2 | 0.00 | 0.00 | 0.00 | 80 | 1006.1 |
| 20260507050046 | 11 | 45 | 1.6 | 6.4 | 0.00 | 0.00 | 0.00 | 80 | 1006.1 |
| 20260507045029 | 11 | 0.0 | 0.0 | 0.00 | 0.00 | 0.00 | 80 | 1006.0 | |
| 20260507044032 | 11 | 270 | 0.0 | 3.2 | 0.00 | 0.00 | 0.00 | 80 | 1006.0 |
| 20260507043038 | 11 | 315 | 0.0 | 3.2 | 0.00 | 0.00 | 0.00 | 80 | 1006.1 |
| 20260507042041 | 12 | 338 | 0.0 | 1.6 | 0.00 | 0.00 | 0.00 | 81 | 1006.4 |
| 20260507041024 | 12 | 293 | 0.0 | 1.6 | 0.00 | 0.00 | 0.00 | 81 | 1006.2 |
| 20260507040048 | 12 | 0.0 | 3.2 | 0.00 | 0.00 | 0.00 | 81 | 1005.9 | |
| 20260507035031 | 13 | 0.0 | 0.0 | 0.00 | 0.00 | 0.00 | 82 | 1005.5 | |
| 20260507034016 | 13 | 0.0 | 3.2 | 0.00 | 0.00 | 0.00 | 83 | 1005.3 | |
| 20260507033019 | 14 | 323 | 3.2 | 11.3 | 0.00 | 0.00 | 0.00 | 83 | 1005.2 |
| 20260507032022 | 14 | 274 | 4.8 | 14.5 | 0.00 | 0.00 | 0.00 | 83 | 1005.2 |
| 20260507031026 | 15 | 252 | 6.4 | 14.5 | 0.00 | 0.00 | 0.00 | 83 | 1005.0 |
| 20260507030029 | 15 | 225 | 0.0 | 3.2 | 0.00 | 0.00 | 0.00 | 82 | 1004.8 |
| 20260507025026 | 15 | 270 | 0.0 | 3.2 | 0.00 | 0.00 | 0.00 | 82 | 1004.8 |
| 20260507024018 | 15 | 264 | 1.6 | 8.0 | 0.00 | 0.00 | 0.00 | 82 | 1004.8 |
| 20260507023041 | 15 | 239 | 1.6 | 4.8 | 0.00 | 0.00 | 0.00 | 82 | 1004.7 |
| 20260507022018 | 15 | 0.0 | 0.0 | 0.00 | 0.00 | 0.00 | 82 | 1004.7 | |
| 20260507021116 | 15 | 0.0 | 0.0 | 0.00 | 0.00 | 0.00 | 82 | 1004.6 | |
| 20260507020031 | 15 | 180 | 0.0 | 6.4 | 0.00 | 0.00 | 0.00 | 82 | 1004.8 |
| 20260507015016 | 15 | 225 | 0.0 | 6.4 | 0.00 | 0.00 | 0.00 | 82 | 1004.7 |
| 20260507014019 | 15 | 0.0 | 0.0 | 0.00 | 0.00 | 0.00 | 82 | 1004.8 | |
| 20260507013103 | 15 | 113 | 0.0 | 1.6 | 0.00 | 0.00 | 0.00 | 82 | 1005.0 |
| 20260507012026 | 15 | 236 | 1.6 | 12.9 | 0.00 | 0.00 | 0.00 | 82 | 1004.9 |
| 20260507010033 | 15 | 225 | 0.0 | 1.6 | 0.00 | 0.00 | 0.00 | 82 | 1004.9 |
| 20260507005018 | 15 | 0.0 | 0.0 | 0.00 | 0.00 | 0.00 | 82 | 1004.7 | |
| 20260507004021 | 15 | 187 | 3.2 | 11.3 | 0.00 | 0.00 | 0.00 | 82 | 1004.8 |
| 20260507003025 | 15 | 178 | 3.2 | 9.7 | 0.00 | 0.00 | 0.00 | 82 | 1005.0 |
| 20260507002028 | 15 | 211 | 3.2 | 6.4 | 0.00 | 0.00 | 0.00 | 82 | 1004.7 |
| 20260507001031 | 15 | 177 | 1.6 | 8.0 | 0.00 | 0.00 | 0.00 | 82 | 1004.7 |
| 20260507000016 | 15 | 265 | 1.6 | 11.3 | 0.00 | 0.00 | 0.00 | 82 | 1004.7 |
| 20260506235020 | 15 | 225 | 0.0 | 6.4 | 0.00 | 0.00 | 0.00 | 82 | 1004.6 |
| 20260506234023 | 15 | 158 | 1.6 | 9.7 | 0.00 | 0.00 | 0.00 | 81 | 1004.6 |
| 20260506233046 | 15 | 162 | 1.6 | 8.0 | 0.00 | 0.00 | 0.00 | 81 | 1004.6 |
| 20260506232050 | 15 | 135 | 1.6 | 9.7 | 0.00 | 0.00 | 0.00 | 81 | 1004.8 |
| 20260506231015 | 15 | 90 | 0.0 | 4.8 | 0.00 | 0.00 | 0.00 | 81 | 1005.0 |
| 20260506230038 | 15 | 146 | 0.0 | 3.2 | 0.00 | 0.00 | 0.00 | 80 | 1004.9 |
| 20260506225041 | 15 | 0.0 | 0.0 | 0.00 | 0.00 | 0.00 | 80 | 1004.8 | |
| 20260506224019 | 15 | 210 | 1.6 | 12.9 | 0.00 | 0.00 | 0.00 | 79 | 1004.9 |
| 20260506223016 | 15 | 212 | 1.6 | 3.2 | 0.00 | 0.00 | 0.00 | 79 | 1005.0 |
| 20260506222031 | 15 | 0.0 | 4.8 | 0.00 | 0.00 | 0.00 | 78 | 1005.2 | |
| 20260506221016 | 15 | 203 | 0.0 | 4.8 | 0.00 | 0.00 | 0.00 | 78 | 1005.3 |
| 20260506220020 | 16 | 158 | 0.0 | 3.2 | 0.00 | 0.00 | 0.00 | 78 | 1005.2 |
| 20260506215024 | 16 | 0.0 | 3.2 | 0.00 | 0.00 | 0.00 | 78 | 1005.4 | |
| 20260506214027 | 16 | 98 | 3.2 | 14.5 | 0.00 | 0.00 | 0.00 | 78 | 1005.5 |
| 20260506213030 | 16 | 0.0 | 3.2 | 0.00 | 0.00 | 0.00 | 77 | 1005.5 |